Regional Weather Roundup
Issued by NWS

Home | Current Version | Previous Version | Text Only | Print | Product List | Glossary Off
Versions: 1 2 3 4 5 6 7 8 9 10 11 12 13 14 15 16 17 18 19 20 21 22 23 24 25 26 27 28 29 30 31 32 33 34 35 36 37 38 39 40 41 42 43 44 45 46 47 48 49 50

000
ASUS43 KIND 021159
RWRIN

WEATHER ROUNDUP FOR INDIANA
NATIONAL WEATHER SERVICE INDIANAPOLIS IN
800 AM EDT SUN AUG 02 2015

NOTE: "FAIR" INDICATES FEW OR NO CLOUDS BELOW 12,000 FEET WITH NO
SIGNIFICANT WEATHER AND/OR OBSTRUCTIONS TO VISIBILITY.

* - STATION DOES NOT REPORT WEATHER SUCH AS PRECIPITATION OR FOG.

+ - STATION NOT QUALITY CONTROLLED BY THE NATIONAL WEATHER SERVICE.
    USE DATA WITH CAUTION...ESPECIALLY DEWPOINT AND RELATIVE
    HUMIDITY OBSERVATIONS.

INZ001>003-010>013-019-020-021300-
NORTHWEST INDIANA

CITY           SKY/WX    TMP DP  RH WIND       PRES   REMARKS
GARY /AIRPORT/ MOSUNNY   72  66  83 SW9       29.88S
KNOX *+        SUNNY     64  64 100 S5        29.90S
LA PORTE +     SUNNY     68  68 100 S3        29.91S
6HR MIN TEMP:  65; 6HR MAX TEMP:  70;

MONTICELLO +   SUNNY     66  64  92 S6        29.93S
6HR MIN TEMP:  64; 6HR MAX TEMP:  68;

RENSSELAER +   SUNNY     66  64  94 S6        29.92S

$$

LMZ046-743>745-021300-
SOUTHERN LAKE MICHIGAN

STATION/POSITION TIME  TEMP    WIND        PRES    WAVE
                       AIR SEA DIR/SP/G            HT
                 (UTC) (F)     (DEG/KT/KT) (MB)    (FT)
BURNS HARBOR     1100   71     220/  9/ 13 1012.5S
MICHIGAN CITY    1100   70     190/ 10/ 12   N/A
5NW MICH CITY    1100   72 73  230/ 10/ 14   N/A     2

$$

INZ004-005-014>016-021>024-021300-
NORTH CENTRAL INDIANA

CITY           SKY/WX    TMP DP  RH WIND       PRES   REMARKS
ELKHART        SUNNY     70  66  88 CALM      29.91
GOSHEN         SUNNY     67  63  87 SW7       29.92R
6HR MIN TEMP:  64; 6HR MAX TEMP:  68;

LOGANSPORT +   SUNNY     64  59  82 SW3       29.95R
SOUTH BEND     SUNNY     68  64  87 SW7       29.91S
6HR MIN TEMP:  66; 6HR MAX TEMP:  71;

WARSAW +       SUNNY     68  63  83 SW5       29.92S

$$

INZ006>009-017-018-025>027-021300-
NORTHEAST INDIANA

CITY           SKY/WX    TMP DP  RH WIND       PRES   REMARKS
ANGOLA *+      SUNNY     70  64  83 W3        29.92S
FORT WAYNE     MOSUNNY   67  62  84 SW7       29.94S
6HR MIN TEMP:  63; 6HR MAX TEMP:  67;


$$

INZ028-029-035-036-043>045-051>053-021300-
WEST CENTRAL INDIANA

CITY           SKY/WX    TMP DP  RH WIND       PRES   REMARKS
CRAWFORDSVL +  SUNNY     64  60  88 SW5         N/A
6HR MIN TEMP:  60; 6HR MAX TEMP:  64;

GREENCASTLE +  SUNNY     63  59  88 CALM      29.98S
LAFAYETTE      SUNNY     66  62  87 CALM      29.94R
6HR MIN TEMP:  62; 6HR MAX TEMP:  67;

TERRE HAUTE    SUNNY     65  62  90 CALM      29.97R
6HR MIN TEMP:  59; 6HR MAX TEMP:  66;


$$

INZ030>032-037>040-046>048-054>057-064-065-021300-
CENTRAL INDIANA

CITY           SKY/WX    TMP DP  RH WIND       PRES   REMARKS
COLUMBUS       SUNNY     64  59  82 SE3       29.99R
FRANKFORT +    SUNNY     65  65 100 CALM      29.97S
GREENWOOD *+   SUNNY     66  59  77 CALM      29.98S
INDIANAPOLIS   MOSUNNY   67  59  75 SW6       29.95S
6HR MIN TEMP:  64; 6HR MAX TEMP:  67;

-EAGLE CREEK   SUNNY     67  60  78 S3        29.96S
6HR MIN TEMP:  63; 6HR MAX TEMP:  69;

KOKOMO *+      SUNNY     68  59  73 SW7       29.96S
6HR MIN TEMP:  64; 6HR MAX TEMP:  70;

MT COMFORT *+  SUNNY     66 N/A N/A CALM      29.98S
SHELBYVILLE    SUNNY     67  61  81 S3        29.97S
6HR MIN TEMP:  62; 6HR MAX TEMP:  67;

ZIONSVILLE +   SUNNY     65  60  84 CALM      29.97S
6HR MIN TEMP:  61; 6HR MAX TEMP:  66;


$$

INZ033-034-041-042-049-050-058-059-021300-
EAST CENTRAL INDIANA

CITY           SKY/WX    TMP DP  RH WIND       PRES   REMARKS
MUNCIE         SUNNY     67  58  72 SW8       29.97R
6HR MIN TEMP:  65; 6HR MAX TEMP:  69;


$$

INZ060-061-067>069-081>083-085>088-021300-
SOUTHWEST INDIANA

CITY           SKY/WX    TMP DP  RH WIND       PRES   REMARKS
EVANSVILLE     FAIR      68  65  90 CALM      29.98R
6HR MIN TEMP:  66; 6HR MAX TEMP:  69;

HUNTINGBURG *+ SUNNY     64  61  88 SE3       29.99R
6HR MIN TEMP:  63; 6HR MAX TEMP:  64;


$$

INZ062-063-066-070>080-084-089>092-021300-
SOUTH CENTRAL AND SOUTHEAST INDIANA

CITY           SKY/WX    TMP DP  RH WIND       PRES   REMARKS
BLOOMINGTON    SUNNY     64  62  93 CALM      29.99R
6HR MIN TEMP:  59; 6HR MAX TEMP:  64;

MADISON *+     MOSUNNY   64  63  94 CALM      30.01S
SEYMOUR +      SUNNY     64  61  88 CALM      29.99R

$$



USA.gov is the U.S. government's official web portal to all federal, state and local government web resources and services.